Location: New Frontier Mobile Home Park
(32.8448°N, 116.9675°W)
Time: 23:16:46
(UTC+00:00)

IDEFIX/ARIANE 42P - Pass Details

Date: 14 July 2020
Orbit: 784 x 804 km, 98.4° (Epoch: 05 August)

Event Time Altitude Azimuth Distance (km) Brightness Sun altitude
Rises 10:20:56 0° 22° (NNE) 3,280 7.0 -25.2°
Reaches altitude 10° 10:23:25 10° 30° (NNE) 2,347 6.1 -24.9°
Maximum altitude 10:28:13 38° 98° (E) 1,183 3.7 -24.3°
Enters shadow 10:30:35 25° 148° (SSE) 1,550 3.9 -24.0°
